Flag for India Weather past 2 weeks in Chennai, Tamil Nadu, India

Now
82 °F

Passing clouds.


Feels Like: 85 °F
Forecast: 73 / 83 °F
Wind: 14 mph from Northeast

Location: Madras / Minambakkam

Current Time: Jan 25, 2015 at 6:10:09 PM

Latest Report: Jan 25, 2015 at 4:40 PM


Visibility: 4 mi

Pressure: 29.95 "Hg

Humidity: 62%

Dew point: 68 °F

Location of ChennaiLocation

Historic Weather in Chennai — Graph

°F

Chennai temperature yesterday

Maximum temperature yesterday: 86 °F (at 1:40 PM)
Minimum temperature yesterday: 73 °F (at 2:40 AM)
Average temperature yesterday: 78 °F

Past Weeks' High & Low Weather Summary

 TemperatureHumidityPressure
High86 °F (Jan 23, 2:40 PM)100% (Jan 16, 4:40 AM)30.09 "Hg (Jan 16, 4:40 AM)
Low66 °F (Jan 13, 5:40 AM)40% (Jan 21, 2:40 PM)29.86 "Hg (Jan 13, 1:40 PM)
Average76 °F75%29.96 "Hg
* Reported Jan 10 4:40 PM — Jan 25 4:40 PM, Chennai, Weather by CustomWeather, © 2014

Note: Actual official high and low records may vary slightly from our data, if they occured in-between our weather recording intervals... More about our weather records

Advertising

Chennai weather history for previous 24 hours

 ConditionsComfort  
Time TempWeatherWind HumidityBarometerVisibility
4:40 PM
Jan 25
82 °FPassing clouds.14 mph62%29.95 "Hg4 mi
3:40 PM84 °FPassing clouds.9 mph58%29.95 "Hg5 mi
2:40 PM82 °FScattered clouds.9 mph58%29.95 "Hg5 mi
1:40 PM84 °FScattered clouds.9 mph58%29.98 "HgN/A
12:40 PM84 °FPassing clouds.12 mph55%30.01 "HgN/A
11:40 AM84 °FPassing clouds.9 mph55%30.04 "Hg5 mi
10:40 AM82 °FPassing clouds.9 mph58%30.07 "Hg4 mi
9:40 AM79 °FScattered clouds.14 mph70%30.07 "Hg3 mi
7:40 AM70 °FFog.2 mph94%30.04 "Hg1 mi
6:40 AM70 °FFog.No wind94%30.01 "Hg2 mi
5:40 AM70 °FFog.No wind94%29.98 "Hg3 mi
4:40 AM70 °FFog.No wind94%29.98 "Hg3 mi
3:40 AM70 °FHaze.No wind94%29.98 "Hg3 mi
2:40 AM72 °FPassing clouds.No wind94%29.98 "Hg4 mi
1:40 AM72 °FPassing clouds.No wind88%29.98 "Hg4 mi
12:40 AM73 °FPassing clouds.No wind89%30.01 "Hg4 mi
11:40 PM
Jan 24
75 °FPassing clouds.3 mph78%30.01 "Hg4 mi
10:40 PM75 °FPassing clouds.3 mph83%30.01 "Hg4 mi
9:40 PM75 °FPassing clouds.6 mph78%30.01 "Hg4 mi
8:40 PM75 °FPassing clouds.7 mph83%29.98 "Hg4 mi
7:40 PM77 °FPassing clouds.9 mph79%29.95 "Hg4 mi
6:40 PM77 °FPassing clouds.10 mph79%29.95 "Hg4 mi
Weather by CustomWeather, © 2014

See weather overviewHow to use our weather pages